Location: Cold Norton
(51.6667°N, 0.6667°E)
Time: 07:02:55
(UTC+00:00)

YAOGAN 1 - Pass Details

Date: 18 November 2025
Orbit: 605 x 607 km, 97.8° (Epoch: 12 December)

Event Time Altitude Azimuth Distance (km) Brightness Sun altitude
Rises 18:18:42 0° 167° (SSE) 2,855 5.9 -20.6°
Reaches altitude 10° 18:20:52 10° 168° (SSE) 1,956 5.0 -21.0°
Maximum altitude 18:25:07 81° 256° (WSW) 623 2.5 -21.6°
Drops below altitude 10° 18:29:25 10° 344° (NNW) 1,970 5.3 -22.3°
Sets 18:31:36 0° 346° (NNW) 2,879 6.1 -22.6°
